| time (UTC) | temp C | wind direction | speed KPH | gust KPH | rain 1hr cm | rain 24hr cm | rain mn cm | humidity % | barometer mb |
| 20260508104827 | 17 | 50 | 8.0 | 0.0 | 0.00 | 0.00 | 0.23 | 84 | 1014.4 |
| 20260508104336 | 18 | 67 | 6.4 | 0.0 | 0.00 | 0.00 | 0.23 | 83 | 1014.3 |
| 20260508103842 | 18 | 46 | 6.4 | 0.0 | 0.00 | 0.00 | 0.23 | 83 | 1014.2 |
| 20260508103333 | 18 | 124 | 6.4 | 0.0 | 0.00 | 0.00 | 0.23 | 83 | 1014.3 |
| 20260508102842 | 18 | 60 | 6.4 | 0.0 | 0.00 | 0.00 | 0.23 | 83 | 1014.3 |
| 20260508102328 | 18 | 80 | 4.8 | 0.0 | 0.00 | 0.00 | 0.23 | 83 | 1014.3 |
| 20260508101838 | 18 | 83 | 6.4 | 0.0 | 0.00 | 0.00 | 0.23 | 83 | 1014.3 |
| 20260508101345 | 18 | 62 | 6.4 | 0.0 | 0.00 | 0.00 | 0.23 | 83 | 1014.3 |
| 20260508100835 | 18 | 82 | 8.0 | 0.0 | 0.00 | 0.00 | 0.23 | 84 | 1014.3 |
| 20260508100345 | 18 | 62 | 8.0 | 0.0 | 0.00 | 0.00 | 0.23 | 84 | 1014.4 |
| 20260508095845 | 18 | 58 | 8.0 | 0.0 | 0.00 | 0.00 | 0.23 | 83 | 1014.4 |
| 20260508095353 | 18 | 87 | 8.0 | 0.0 | 0.00 | 0.00 | 0.23 | 84 | 1014.4 |
| 20260508094843 | 17 | 103 | 6.4 | 0.0 | 0.00 | 0.00 | 0.23 | 85 | 1014.5 |
| 20260508094353 | 17 | 86 | 6.4 | 0.0 | 0.00 | 0.00 | 0.23 | 86 | 1014.7 |
| 20260508093842 | 17 | 59 | 6.4 | 0.0 | 0.00 | 0.00 | 0.23 | 87 | 1014.7 |
| 20260508093334 | 17 | 72 | 4.8 | 0.0 | 0.00 | 0.00 | 0.23 | 88 | 1014.6 |
| 20260508092841 | 17 | 54 | 4.8 | 0.0 | 0.00 | 0.00 | 0.23 | 88 | 1014.5 |
| 20260508092332 | 16 | 54 | 4.8 | 0.0 | 0.00 | 0.00 | 0.23 | 88 | 1014.5 |
| 20260508091830 | 16 | 73 | 4.8 | 0.0 | 0.00 | 0.00 | 0.23 | 89 | 1014.7 |
| 20260508091342 | 16 | 74 | 4.8 | 0.0 | 0.00 | 0.00 | 0.23 | 89 | 1014.7 |
| 20260508090832 | 16 | 75 | 4.8 | 0.0 | 0.00 | 0.00 | 0.23 | 89 | 1014.6 |
| 20260508090338 | 16 | 1 | 3.2 | 0.0 | 0.00 | 0.00 | 0.23 | 90 | 1014.6 |
| 20260508085844 | 16 | 63 | 4.8 | 0.0 | 0.00 | 0.00 | 0.23 | 90 | 1014.4 |
| 20260508085354 | 16 | 76 | 4.8 | 0.0 | 0.00 | 0.00 | 0.23 | 90 | 1014.4 |
| 20260508084843 | 16 | 84 | 4.8 | 0.0 | 0.00 | 0.00 | 0.23 | 90 | 1014.4 |
| 20260508084335 | 16 | 65 | 4.8 | 0.0 | 0.00 | 0.00 | 0.23 | 90 | 1014.4 |
| 20260508083842 | 16 | 101 | 4.8 | 0.0 | 0.00 | 0.00 | 0.23 | 91 | 1014.4 |
| 20260508083332 | 16 | 82 | 6.4 | 0.0 | 0.00 | 0.00 | 0.23 | 91 | 1014.4 |
| 20260508082842 | 16 | 105 | 6.4 | 0.0 | 0.00 | 0.00 | 0.23 | 92 | 1014.3 |
| 20260508082333 | 16 | 90 | 6.4 | 0.0 | 0.00 | 0.00 | 0.23 | 92 | 1014.3 |
| 20260508081844 | 16 | 1 | 4.8 | 0.0 | 0.00 | 0.00 | 0.23 | 93 | 1014.3 |
| 20260508081330 | 16 | 335 | 3.2 | 0.0 | 0.00 | 0.00 | 0.23 | 94 | 1014.3 |
| 20260508080840 | 15 | 60 | 4.8 | 0.0 | 0.00 | 0.00 | 0.23 | 94 | 1014.4 |
| 20260508080333 | 15 | 67 | 4.8 | 0.0 | 0.00 | 0.00 | 0.23 | 95 | 1014.3 |
| 20260508075836 | 15 | 68 | 4.8 | 0.0 | 0.00 | 0.00 | 0.23 | 95 | 1014.3 |
| 20260508075347 | 15 | 80 | 3.2 | 0.0 | 0.00 | 0.00 | 0.23 | 95 | 1014.2 |
| 20260508074832 | 15 | 83 | 3.2 | 0.0 | 0.00 | 0.00 | 0.23 | 95 | 1014.0 |
| 20260508074343 | 15 | 74 | 3.2 | 0.0 | 0.00 | 0.00 | 0.23 | 95 | 1014.0 |
| 20260508073833 | 15 | 41 | 3.2 | 0.0 | 0.00 | 0.00 | 0.23 | 95 | 1014.0 |
| 20260508073404 | 15 | 34 | 1.6 | 0.0 | 0.00 | 0.00 | 0.23 | 95 | 1014.1 |
| 20260508072826 | 14 | 77 | 3.2 | 0.0 | 0.00 | 0.00 | 0.23 | 95 | 1014.1 |
| 20260508072337 | 14 | 92 | 3.2 | 0.0 | 0.00 | 0.00 | 0.23 | 95 | 1014.0 |
| 20260508071827 | 14 | 65 | 3.2 | 0.0 | 0.00 | 0.00 | 0.23 | 95 | 1014.0 |
| 20260508071338 | 14 | 110 | 3.2 | 0.0 | 0.00 | 0.00 | 0.23 | 95 | 1014.1 |
| 20260508070828 | 14 | 98 | 3.2 | 0.0 | 0.00 | 0.00 | 0.23 | 95 | 1014.1 |
| 20260508070336 | 14 | 83 | 3.2 | 0.0 | 0.00 | 0.00 | 0.23 | 95 | 1014.0 |
| 20260508065840 | 14 | 91 | 3.2 | 0.0 | 0.00 | 0.00 | 0.23 | 95 | 1014.0 |
| 20260508065329 | 14 | 101 | 3.2 | 0.0 | 0.00 | 0.00 | 0.23 | 95 | 1013.9 |
| 20260508064859 | 14 | 89 | 4.8 | 0.0 | 0.00 | 0.00 | 0.23 | 95 | 1013.9 |
| 20260508064401 | 14 | 84 | 4.8 | 0.0 | 0.00 | 0.00 | 0.23 | 95 | 1013.9 |
| 20260508063906 | 14 | 103 | 4.8 | 0.0 | 0.00 | 0.00 | 0.23 | 95 | 1013.9 |
| 20260508063332 | 14 | 94 | 4.8 | 0.0 | 0.00 | 0.00 | 0.23 | 95 | 1013.8 |
| 20260508062843 | 14 | 105 | 4.8 | 0.0 | 0.00 | 0.00 | 0.23 | 95 | 1013.8 |
| 20260508062334 | 14 | 67 | 4.8 | 0.0 | 0.00 | 0.00 | 0.23 | 95 | 1013.8 |
| 20260508061840 | 14 | 101 | 3.2 | 0.0 | 0.00 | 0.00 | 0.23 | 95 | 1013.6 |
| 20260508061351 | 14 | 114 | 1.6 | 0.0 | 0.00 | 0.00 | 0.23 | 96 | 1013.6 |
| 20260508060840 | 14 | 98 | 3.2 | 0.0 | 0.00 | 0.00 | 0.23 | 96 | 1013.5 |
| 20260508060331 | 14 | 72 | 3.2 | 0.0 | 0.00 | 0.00 | 0.23 | 95 | 1013.5 |
| 20260508055830 | 14 | 71 | 3.2 | 0.0 | 0.00 | 0.00 | 0.23 | 95 | 1013.5 |
| 20260508055340 | 14 | 69 | 3.2 | 0.0 | 0.00 | 0.00 | 0.23 | 95 | 1013.4 |
| 20260508054830 | 14 | 96 | 3.2 | 0.0 | 0.00 | 0.00 | 0.23 | 96 | 1013.4 |
| 20260508054342 | 13 | 102 | 1.6 | 0.0 | 0.00 | 0.00 | 0.23 | 95 | 1013.4 |
| 20260508053832 | 13 | 125 | 1.6 | 0.0 | 0.00 | 0.00 | 0.23 | 96 | 1013.3 |
| 20260508053358 | 13 | 63 | 1.6 | 0.0 | 0.00 | 0.00 | 0.23 | 96 | 1013.2 |
| 20260508052828 | 13 | 87 | 3.2 | 0.0 | 0.00 | 0.00 | 0.23 | 96 | 1013.1 |
| 20260508052338 | 13 | 91 | 3.2 | 0.0 | 0.00 | 0.00 | 0.23 | 96 | 1013.0 |
| 20260508051829 | 13 | 73 | 3.2 | 0.0 | 0.00 | 0.00 | 0.23 | 96 | 1012.9 |
| 20260508051327 | 13 | 94 | 3.2 | 0.0 | 0.00 | 0.00 | 0.23 | 96 | 1012.8 |
| 20260508050833 | 13 | 94 | 1.6 | 0.0 | 0.00 | 0.00 | 0.23 | 96 | 1012.5 |
| 20260508050344 | 13 | 44 | 1.6 | 0.0 | 0.00 | 0.00 | 0.23 | 95 | 1012.5 |
| 20260508045848 | 13 | 85 | 3.2 | 0.0 | 0.00 | 0.00 | 0.23 | 95 | 1012.4 |
| 20260508045335 | 13 | 88 | 1.6 | 0.0 | 0.00 | 0.00 | 0.23 | 95 | 1012.2 |
| 20260508044845 | 13 | 107 | 1.6 | 0.0 | 0.00 | 0.00 | 0.23 | 95 | 1012.2 |
| 20260508044351 | 13 | 156 | 1.6 | 0.0 | 0.00 | 0.00 | 0.23 | 95 | 1012.2 |
| 20260508043841 | 13 | 101 | 1.6 | 0.0 | 0.00 | 0.00 | 0.23 | 95 | 1012.1 |
| 20260508043332 | 13 | 82 | 1.6 | 0.0 | 0.00 | 0.00 | 0.23 | 95 | 1012.0 |
| 20260508042842 | 13 | 101 | 1.6 | 0.0 | 0.00 | 0.00 | 0.23 | 95 | 1012.0 |
| 20260508042333 | 13 | 113 | 1.6 | 0.0 | 0.00 | 0.00 | 0.23 | 96 | 1012.1 |
| 20260508041859 | 13 | 96 | 1.6 | 0.0 | 0.00 | 0.00 | 0.23 | 95 | 1012.0 |
| 20260508041347 | 13 | 110 | 1.6 | 0.0 | 0.00 | 0.00 | 0.23 | 95 | 1012.0 |
| 20260508040836 | 13 | 115 | 1.6 | 0.0 | 0.00 | 0.00 | 0.23 | 95 | 1012.0 |
| 20260508040326 | 14 | 104 | 1.6 | 0.0 | 0.00 | 0.00 | 0.23 | 95 | 1011.9 |
| 20260508035825 | 14 | 58 | 1.6 | 0.0 | 0.00 | 0.00 | 0.23 | 95 | 1011.9 |
| 20260508035356 | 14 | 46 | 1.6 | 0.0 | 0.00 | 0.00 | 0.23 | 95 | 1012.0 |
| 20260508034825 | 14 | 72 | 1.6 | 0.0 | 0.00 | 0.00 | 0.23 | 95 | 1012.0 |
| 20260508034343 | 14 | 77 | 1.6 | 0.0 | 0.00 | 0.00 | 0.23 | 96 | 1012.1 |
| 20260508033830 | 14 | 101 | 1.6 | 0.0 | 0.00 | 0.00 | 0.23 | 96 | 1012.2 |
| 20260508033337 | 14 | 89 | 3.2 | 0.0 | 0.00 | 0.00 | 0.23 | 95 | 1012.2 |
| 20260508032827 | 14 | 98 | 3.2 | 0.0 | 0.00 | 0.00 | 0.23 | 95 | 1012.3 |
| 20260508032337 | 14 | 63 | 1.6 | 0.0 | 0.00 | 0.00 | 0.23 | 95 | 1012.3 |
| 20260508031827 | 14 | 95 | 0.0 | 0.0 | 0.00 | 0.00 | 0.23 | 95 | 1012.3 |
| 20260508031355 | 14 | 92 | 1.6 | 0.0 | 0.00 | 0.00 | 0.23 | 95 | 1012.4 |
| 20260508030843 | 14 | 77 | 1.6 | 0.0 | 0.00 | 0.00 | 0.23 | 95 | 1012.3 |
| 20260508030333 | 14 | 94 | 1.6 | 0.0 | 0.00 | 0.00 | 0.23 | 95 | 1012.3 |
| 20260508025856 | 14 | 60 | 1.6 | 0.0 | 0.00 | 0.00 | 0.23 | 95 | 1012.4 |
| 20260508025404 | 14 | 39 | 1.6 | 0.0 | 0.00 | 0.00 | 0.23 | 95 | 1012.4 |
| 20260508024832 | 14 | 45 | 1.6 | 0.0 | 0.00 | 0.00 | 0.23 | 95 | 1012.3 |
| 20260508024342 | 14 | 41 | 1.6 | 0.0 | 0.00 | 0.00 | 0.23 | 95 | 1012.3 |
| 20260508023833 | 14 | 79 | 1.6 | 0.0 | 0.00 | 0.00 | 0.23 | 95 | 1012.3 |
| 20260508023344 | 14 | 70 | 1.6 | 0.0 | 0.00 | 0.00 | 0.23 | 96 | 1012.3 |
| 20260508022835 | 13 | 45 | 1.6 | 0.0 | 0.00 | 0.00 | 0.23 | 96 | 1012.3 |
| 20260508022341 | 13 | 63 | 1.6 | 0.0 | 0.00 | 0.00 | 0.23 | 96 | 1012.3 |
| 20260508021831 | 13 | 108 | 1.6 | 0.0 | 0.00 | 0.00 | 0.23 | 95 | 1012.3 |
| 20260508021343 | 13 | 92 | 3.2 | 0.0 | 0.00 | 0.00 | 0.23 | 95 | 1012.3 |
| 20260508020833 | 13 | 105 | 3.2 | 0.0 | 0.00 | 0.00 | 0.23 | 95 | 1012.2 |
| 20260508020344 | 13 | 45 | 3.2 | 0.0 | 0.00 | 0.00 | 0.23 | 95 | 1012.1 |
| 20260508015844 | 13 | 70 | 3.2 | 0.0 | 0.00 | 0.00 | 0.23 | 95 | 1012.1 |
| 20260508015336 | 13 | 81 | 1.6 | 0.0 | 0.00 | 0.00 | 0.23 | 95 | 1012.2 |
| 20260508014906 | 13 | 78 | 1.6 | 0.0 | 0.00 | 0.00 | 0.23 | 95 | 1012.2 |
| 20260508014335 | 13 | 76 | 1.6 | 0.0 | 0.00 | 0.00 | 0.23 | 95 | 1012.3 |
| 20260508013841 | 13 | 82 | 3.2 | 0.0 | 0.00 | 0.00 | 0.23 | 95 | 1012.3 |
| 20260508013332 | 13 | 88 | 3.2 | 0.0 | 0.00 | 0.00 | 0.23 | 95 | 1012.4 |
| 20260508012843 | 14 | 96 | 3.2 | 0.0 | 0.00 | 0.00 | 0.23 | 95 | 1012.3 |
| 20260508012335 | 14 | 103 | 4.8 | 0.0 | 0.00 | 0.00 | 0.23 | 95 | 1012.4 |
| 20260508011845 | 14 | 55 | 4.8 | 0.0 | 0.00 | 0.00 | 0.23 | 95 | 1012.4 |
| 20260508010834 | 14 | 91 | 4.8 | 0.0 | 0.00 | 0.00 | 0.23 | 95 | 1012.5 |
| 20260508010344 | 14 | 84 | 4.8 | 0.0 | 0.00 | 0.00 | 0.23 | 95 | 1012.6 |
| 20260508005827 | 14 | 65 | 4.8 | 0.0 | 0.00 | 0.00 | 0.23 | 95 | 1012.7 |
| 20260508004834 | 14 | 86 | 4.8 | 0.0 | 0.00 | 0.00 | 0.23 | 95 | 1012.8 |
| 20260508004340 | 14 | 99 | 3.2 | 0.0 | 0.00 | 0.00 | 0.23 | 95 | 1012.9 |
| 20260508003830 | 14 | 83 | 3.2 | 0.0 | 0.00 | 0.00 | 0.23 | 95 | 1012.9 |
| 20260508003341 | 14 | 70 | 3.2 | 0.0 | 0.00 | 0.00 | 0.23 | 95 | 1012.9 |
| 20260508002831 | 14 | 56 | 3.2 | 0.0 | 0.00 | 0.00 | 0.23 | 95 | 1012.9 |
| 20260508002341 | 13 | 53 | 3.2 | 0.0 | 0.00 | 0.00 | 0.23 | 95 | 1012.9 |
| 20260508001827 | 13 | 45 | 3.2 | 0.0 | 0.00 | 0.00 | 0.23 | 95 | 1013.0 |
| 20260508001338 | 13 | 22 | 3.2 | 0.0 | 0.00 | 0.00 | 0.23 | 95 | 1013.0 |
| 20260508000828 | 13 | 56 | 3.2 | 0.0 | 0.00 | 0.00 | 0.23 | 95 | 1013.0 |
| 20260508000338 | 13 | 34 | 3.2 | 0.0 | 0.00 | 0.00 | 0.23 | 95 | 1013.1 |
| 20260507235841 | 13 | 44 | 3.2 | 0.0 | 0.00 | 0.00 | 0.23 | 95 | 1013.1 |
| 20260507235336 | 13 | 54 | 3.2 | 0.0 | 0.00 | 0.00 | 0.20 | 95 | 1013.2 |
| 20260507234846 | 13 | 27 | 3.2 | 0.0 | 0.00 | 0.00 | 0.20 | 95 | 1013.2 |
| 20260507234337 | 13 | 82 | 3.2 | 0.0 | 0.00 | 0.00 | 0.20 | 95 | 1013.2 |
| 20260507233826 | 13 | 73 | 3.2 | 0.0 | 0.00 | 0.00 | 0.20 | 95 | 1013.3 |
| 20260507233338 | 13 | 46 | 1.6 | 0.0 | 0.00 | 0.00 | 0.20 | 95 | 1013.5 |
| 20260507232905 | 13 | 105 | 3.2 | 0.0 | 0.00 | 0.00 | 0.20 | 95 | 1013.6 |
| 20260507232334 | 13 | 48 | 3.2 | 0.0 | 0.00 | 0.00 | 0.20 | 95 | 1013.6 |
| 20260507231845 | 13 | 48 | 1.6 | 0.0 | 0.00 | 0.00 | 0.20 | 95 | 1013.6 |
| 20260507231337 | 13 | 56 | 1.6 | 0.0 | 0.00 | 0.00 | 0.20 | 95 | 1013.6 |
| 20260507230827 | 13 | 63 | 3.2 | 0.0 | 0.00 | 0.00 | 0.20 | 95 | 1013.6 |
| 20260507230333 | 13 | 32 | 3.2 | 0.0 | 0.00 | 0.00 | 0.20 | 95 | 1013.6 |
| 20260507225837 | 14 | 93 | 1.6 | 0.0 | 0.00 | 0.00 | 0.18 | 95 | 1013.7 |
| 20260507225329 | 13 | 51 | 3.2 | 0.0 | 0.00 | 0.00 | 0.18 | 95 | 1013.8 |
| 20260507224839 | 13 | 42 | 4.8 | 0.0 | 0.00 | 0.00 | 0.15 | 95 | 1013.9 |
| 20260507224329 | 13 | 82 | 4.8 | 0.0 | 0.00 | 0.00 | 0.15 | 95 | 1013.9 |
| 20260507223835 | 13 | 84 | 6.4 | 0.0 | 0.00 | 0.00 | 0.15 | 94 | 1013.9 |
| 20260507223327 | 13 | 75 | 6.4 | 0.0 | 0.00 | 0.00 | 0.13 | 94 | 1013.9 |
| 20260507222837 | 13 | 86 | 6.4 | 0.0 | 0.00 | 0.00 | 0.08 | 94 | 1013.8 |
| 20260507222347 | 13 | 48 | 6.4 | 0.0 | 0.00 | 0.00 | 0.05 | 95 | 1013.9 |
| 20260507221856 | 13 | 73 | 6.4 | 0.0 | 0.00 | 0.00 | 0.03 | 95 | 1013.8 |
| 20260507221403 | 14 | 96 | 4.8 | 0.0 | 0.00 | 0.00 | 0.00 | 95 | 1013.8 |
| 20260507220832 | 14 | 106 | 3.2 | 0.0 | 0.00 | 0.00 | 0.00 | 95 | 1013.8 |
| 20260507220342 | 14 | 39 | 3.2 | 0.0 | 0.00 | 0.00 | 0.00 | 95 | 1013.7 |
| 20260507215826 | 14 | 78 | 3.2 | 0.0 | 0.00 | 0.00 | 0.00 | 95 | 1013.7 |
| 20260507215332 | 14 | 39 | 3.2 | 0.0 | 0.00 | 0.00 | 0.89 | 95 | 1013.7 |
| 20260507214843 | 13 | 44 | 3.2 | 0.0 | 0.00 | 0.00 | 0.89 | 95 | 1013.6 |
| 20260507214334 | 13 | 65 | 3.2 | 0.0 | 0.00 | 0.00 | 0.89 | 95 | 1013.6 |
| 20260507213903 | 14 | 43 | 3.2 | 0.0 | 0.00 | 0.00 | 0.89 | 95 | 1013.6 |
| 20260507213333 | 14 | 37 | 3.2 | 0.0 | 0.00 | 0.00 | 0.89 | 95 | 1013.7 |
| 20260507212839 | 14 | 46 | 3.2 | 0.0 | 0.00 | 0.00 | 0.89 | 95 | 1013.7 |
| 20260507212330 | 14 | 58 | 3.2 | 0.0 | 0.00 | 0.00 | 0.89 | 95 | 1013.8 |
| 20260507211840 | 14 | 60 | 3.2 | 0.0 | 0.00 | 0.00 | 0.89 | 95 | 1013.8 |
| 20260507211351 | 14 | 48 | 1.6 | 0.0 | 0.00 | 0.00 | 0.89 | 95 | 1013.8 |
| 20260507210840 | 14 | 50 | 1.6 | 0.0 | 0.00 | 0.00 | 0.89 | 95 | 1013.8 |
| 20260507210339 | 14 | 93 | 1.6 | 0.0 | 0.00 | 0.00 | 0.89 | 95 | 1013.7 |
| 20260507205844 | 14 | 89 | 1.6 | 0.0 | 0.00 | 0.00 | 0.89 | 95 | 1013.7 |
| 20260507205333 | 14 | 73 | 3.2 | 0.0 | 0.00 | 0.00 | 0.89 | 95 | 1013.6 |
| 20260507204844 | 14 | 54 | 3.2 | 0.0 | 0.00 | 0.00 | 0.89 | 95 | 1013.7 |
| 20260507204334 | 14 | 49 | 3.2 | 0.0 | 0.00 | 0.00 | 0.89 | 95 | 1013.6 |
| 20260507203900 | 14 | 56 | 3.2 | 0.0 | 0.00 | 0.00 | 0.89 | 95 | 1013.5 |
| 20260507203331 | 14 | 56 | 3.2 | 0.0 | 0.00 | 0.00 | 0.89 | 95 | 1013.5 |
| 20260507202852 | 14 | 76 | 1.6 | 0.0 | 0.00 | 0.00 | 0.89 | 95 | 1013.4 |
| 20260507202352 | 14 | 96 | 1.6 | 0.0 | 0.00 | 0.00 | 0.89 | 95 | 1013.4 |
| 20260507201853 | 14 | 66 | 1.6 | 0.0 | 0.00 | 0.00 | 0.89 | 95 | 1013.4 |
| 20260507201346 | 14 | 82 | 1.6 | 0.0 | 0.00 | 0.00 | 0.89 | 95 | 1013.4 |
| 20260507200842 | 14 | 43 | 1.6 | 0.0 | 0.00 | 0.00 | 0.89 | 95 | 1013.4 |
| 20260507200354 | 14 | 31 | 1.6 | 0.0 | 0.00 | 0.00 | 0.89 | 95 | 1013.3 |
| 20260507195838 | 14 | 32 | 3.2 | 0.0 | 0.00 | 0.00 | 0.89 | 95 | 1013.2 |
| 20260507195328 | 14 | 72 | 1.6 | 0.0 | 0.00 | 0.00 | 0.89 | 95 | 1013.2 |
| 20260507194835 | 14 | 71 | 3.2 | 0.0 | 0.00 | 0.00 | 0.89 | 95 | 1013.2 |
| 20260507194328 | 15 | 68 | 3.2 | 0.0 | 0.00 | 0.00 | 0.89 | 95 | 1013.2 |
| 20260507193837 | 15 | 42 | 3.2 | 0.0 | 0.00 | 0.00 | 0.86 | 95 | 1013.1 |
| 20260507193327 | 15 | 70 | 3.2 | 0.0 | 0.00 | 0.00 | 0.86 | 95 | 1013.0 |
| 20260507192837 | 15 | 46 | 1.6 | 0.0 | 0.00 | 0.00 | 0.86 | 95 | 1013.0 |
| 20260507192344 | 15 | 83 | 1.6 | 0.0 | 0.00 | 0.00 | 0.86 | 95 | 1012.9 |
| 20260507191834 | 15 | 65 | 1.6 | 0.0 | 0.00 | 0.00 | 0.86 | 95 | 1012.9 |
| 20260507191344 | 15 | 44 | 1.6 | 0.0 | 0.00 | 0.00 | 0.86 | 95 | 1012.9 |
| 20260507190834 | 15 | 50 | 1.6 | 0.0 | 0.00 | 0.00 | 0.84 | 94 | 1012.9 |
| 20260507190327 | 15 | 86 | 1.6 | 0.0 | 0.00 | 0.00 | 0.84 | 95 | 1012.9 |
| 20260507185845 | 15 | 111 | 3.2 | 0.0 | 0.00 | 0.00 | 0.84 | 95 | 1012.8 |
| 20260507185355 | 14 | 96 | 3.2 | 0.0 | 0.00 | 0.00 | 0.84 | 94 | 1012.8 |
| 20260507184845 | 14 | 91 | 3.2 | 0.0 | 0.00 | 0.00 | 0.84 | 94 | 1012.7 |
| 20260507184336 | 14 | 60 | 3.2 | 0.0 | 0.00 | 0.00 | 0.84 | 94 | 1012.6 |
| 20260507183839 | 15 | 99 | 3.2 | 0.0 | 0.00 | 0.00 | 0.84 | 94 | 1012.6 |
| 20260507183328 | 15 | 65 | 1.6 | 0.0 | 0.00 | 0.00 | 0.84 | 94 | 1012.5 |
| 20260507182858 | 15 | 117 | 3.2 | 0.0 | 0.00 | 0.00 | 0.84 | 94 | 1012.4 |
| 20260507182329 | 15 | 64 | 1.6 | 0.0 | 0.00 | 0.00 | 0.84 | 94 | 1012.3 |
| 20260507181828 | 15 | 45 | 1.6 | 0.0 | 0.00 | 0.00 | 0.84 | 94 | 1012.2 |
| 20260507181334 | 15 | 81 | 3.2 | 0.0 | 0.00 | 0.00 | 0.81 | 94 | 1012.2 |
| 20260507180904 | 15 | 54 | 4.8 | 0.0 | 0.00 | 0.00 | 0.79 | 94 | 1012.1 |
| 20260507180334 | 15 | 61 | 4.8 | 0.0 | 0.00 | 0.00 | 0.79 | 94 | 1012.0 |
| 20260507175837 | 15 | 82 | 3.2 | 0.0 | 0.00 | 0.00 | 0.76 | 94 | 1012.0 |
| 20260507175327 | 15 | 75 | 3.2 | 0.0 | 0.00 | 0.00 | 0.74 | 94 | 1011.9 |
| 20260507174853 | 15 | 78 | 3.2 | 0.0 | 0.00 | 0.00 | 0.74 | 94 | 1011.9 |
| 20260507174343 | 15 | 73 | 3.2 | 0.0 | 0.00 | 0.00 | 0.71 | 94 | 1011.9 |
| 20260507173833 | 15 | 64 | 3.2 | 0.0 | 0.00 | 0.00 | 0.71 | 94 | 1011.9 |
| 20260507173343 | 15 | 71 | 3.2 | 0.0 | 0.00 | 0.00 | 0.71 | 94 | 1011.9 |
| 20260507172833 | 15 | 40 | 3.2 | 0.0 | 0.00 | 0.00 | 0.71 | 93 | 1012.0 |
| 20260507172340 | 15 | 41 | 1.6 | 0.0 | 0.00 | 0.00 | 0.71 | 93 | 1011.9 |
| 20260507171830 | 15 | 77 | 1.6 | 0.0 | 0.00 | 0.00 | 0.69 | 93 | 1011.9 |
| 20260507171340 | 15 | 69 | 1.6 | 0.0 | 0.00 | 0.00 | 0.66 | 93 | 1012.0 |
| 20260507170831 | 15 | 46 | 3.2 | 0.0 | 0.00 | 0.00 | 0.64 | 93 | 1012.0 |
| 20260507170342 | 15 | 103 | 4.8 | 0.0 | 0.00 | 0.00 | 0.61 | 93 | 1012.0 |
| 20260507165841 | 15 | 97 | 4.8 | 0.0 | 0.00 | 0.00 | 0.58 | 93 | 1012.0 |
| 20260507165352 | 15 | 91 | 4.8 | 0.0 | 0.00 | 0.00 | 0.53 | 93 | 1012.1 |
| 20260507164842 | 15 | 55 | 4.8 | 0.0 | 0.00 | 0.00 | 0.51 | 93 | 1012.2 |
| 20260507164333 | 15 | 98 | 4.8 | 0.0 | 0.00 | 0.00 | 0.48 | 93 | 1012.2 |
| 20260507163839 | 15 | 85 | 4.8 | 0.0 | 0.00 | 0.00 | 0.46 | 92 | 1012.2 |
| 20260507163330 | 15 | 93 | 4.8 | 0.0 | 0.00 | 0.00 | 0.43 | 92 | 1012.2 |
| 20260507162840 | 15 | 98 | 6.4 | 0.0 | 0.00 | 0.00 | 0.43 | 92 | 1012.2 |
| 20260507162329 | 15 | 84 | 6.4 | 0.0 | 0.00 | 0.00 | 0.41 | 91 | 1012.1 |
| 20260507161840 | 15 | 88 | 6.4 | 0.0 | 0.00 | 0.00 | 0.38 | 91 | 1012.1 |
| 20260507161348 | 15 | 69 | 4.8 | 0.0 | 0.00 | 0.00 | 0.36 | 91 | 1012.0 |
| 20260507160837 | 15 | 109 | 8.0 | 0.0 | 0.00 | 0.00 | 0.33 | 90 | 1012.0 |
| 20260507160348 | 15 | 137 | 8.0 | 0.0 | 0.00 | 0.00 | 0.30 | 89 | 1012.0 |
| 20260507155858 | 16 | 87 | 8.0 | 0.0 | 0.00 | 0.00 | 0.15 | 89 | 1012.0 |
| 20260507155403 | 16 | 54 | 6.4 | 0.0 | 0.00 | 0.00 | 0.10 | 89 | 1012.0 |
| 20260507154832 | 16 | 118 | 4.8 | 0.0 | 0.00 | 0.00 | 0.08 | 89 | 1012.0 |
| 20260507154344 | 16 | 116 | 6.4 | 0.0 | 0.00 | 0.00 | 0.08 | 89 | 1012.0 |
| 20260507153834 | 16 | 106 | 6.4 | 0.0 | 0.00 | 0.00 | 0.08 | 89 | 1012.0 |
| 20260507153345 | 16 | 139 | 6.4 | 0.0 | 0.00 | 0.00 | 0.08 | 88 | 1011.9 |
| 20260507152831 | 16 | 115 | 6.4 | 0.0 | 0.00 | 0.00 | 0.08 | 89 | 1011.9 |
| 20260507152344 | 16 | 95 | 6.4 | 0.0 | 0.00 | 0.00 | 0.08 | 88 | 1011.9 |
| 20260507151855 | 16 | 145 | 8.0 | 0.0 | 0.00 | 0.00 | 0.08 | 88 | 1012.0 |
| 20260507151343 | 16 | 130 | 6.4 | 0.0 | 0.00 | 0.00 | 0.08 | 88 | 1011.9 |
| 20260507150833 | 17 | 139 | 6.4 | 0.0 | 0.00 | 0.00 | 0.08 | 88 | 1011.9 |
| 20260507150335 | 17 | 165 | 6.4 | 0.0 | 0.00 | 0.00 | 0.05 | 87 | 1011.9 |
| 20260507145838 | 17 | 129 | 4.8 | 0.0 | 0.00 | 0.00 | 0.05 | 87 | 1011.9 |
| 20260507145329 | 17 | 143 | 4.8 | 0.0 | 0.00 | 0.00 | 0.05 | 86 | 1011.9 |
| 20260507144839 | 17 | 144 | 4.8 | 0.0 | 0.00 | 0.00 | 0.05 | 85 | 1011.9 |
| 20260507144347 | 17 | 133 | 6.4 | 0.0 | 0.00 | 0.00 | 0.05 | 84 | 1011.9 |
| 20260507143836 | 17 | 156 | 8.0 | 0.0 | 0.00 | 0.00 | 0.05 | 83 | 1012.0 |
| 20260507143346 | 17 | 160 | 8.0 | 0.0 | 0.00 | 0.00 | 0.05 | 81 | 1012.0 |
| 20260507142837 | 18 | 95 | 6.4 | 0.0 | 0.00 | 0.00 | 0.05 | 78 | 1012.0 |
| 20260507142329 | 18 | 153 | 6.4 | 0.0 | 0.00 | 0.00 | 0.05 | 74 | 1012.0 |
| 20260507141835 | 18 | 97 | 8.0 | 0.0 | 0.00 | 0.00 | 0.05 | 73 | 1012.0 |
| 20260507141405 | 18 | 143 | 8.0 | 0.0 | 0.00 | 0.00 | 0.05 | 74 | 1012.0 |
| 20260507140835 | 18 | 72 | 8.0 | 0.0 | 0.00 | 0.00 | 0.05 | 75 | 1012.1 |
| 20260507140407 | 18 | 123 | 9.7 | 0.0 | 0.00 | 0.00 | 0.05 | 76 | 1012.1 |
| 20260507135829 | 18 | 78 | 9.7 | 0.0 | 0.00 | 0.00 | 0.05 | 77 | 1012.1 |
| 20260507135336 | 18 | 102 | 9.7 | 0.0 | 0.00 | 0.00 | 0.05 | 78 | 1012.1 |
| 20260507134906 | 18 | 89 | 9.7 | 0.0 | 0.00 | 0.00 | 0.05 | 78 | 1012.2 |
| 20260507134356 | 18 | 113 | 11.3 | 0.0 | 0.00 | 0.00 | 0.05 | 80 | 1012.2 |
| 20260507133846 | 18 | 94 | 11.3 | 0.0 | 0.00 | 0.00 | 0.05 | 81 | 1012.2 |
| 20260507133353 | 18 | 127 | 11.3 | 0.0 | 0.00 | 0.00 | 0.05 | 81 | 1012.2 |
| 20260507132858 | 18 | 51 | 11.3 | 0.0 | 0.00 | 0.00 | 0.05 | 82 | 1012.3 |
| 20260507132328 | 18 | 96 | 11.3 | 0.0 | 0.00 | 0.00 | 0.05 | 80 | 1012.4 |
| 20260507131838 | 18 | 98 | 11.3 | 0.0 | 0.00 | 0.00 | 0.03 | 77 | 1012.4 |
| 20260507131344 | 19 | 101 | 11.3 | 0.0 | 0.00 | 0.00 | 0.00 | 74 | 1012.4 |
| 20260507130834 | 19 | 91 | 12.9 | 0.0 | 0.00 | 0.00 | 0.00 | 73 | 1012.3 |
| 20260507130345 | 19 | 54 | 12.9 | 0.0 | 0.00 | 0.00 | 0.00 | 72 | 1012.4 |
| 20260507125828 | 20 | 4 | 11.3 | 0.0 | 0.00 | 0.00 | 0.00 | 72 | 1012.4 |
| 20260507125339 | 20 | 94 | 9.7 | 0.0 | 0.00 | 0.00 | 0.00 | 71 | 1012.4 |
| 20260507124845 | 20 | 99 | 9.7 | 0.0 | 0.00 | 0.00 | 0.00 | 71 | 1012.5 |
| 20260507124336 | 20 | 94 | 11.3 | 0.0 | 0.00 | 0.00 | 0.00 | 71 | 1012.4 |
| 20260507123906 | 20 | 65 | 9.7 | 0.0 | 0.00 | 0.00 | 0.00 | 70 | 1012.5 |
| 20260507123336 | 20 | 111 | 8.0 | 0.0 | 0.00 | 0.00 | 0.00 | 70 | 1012.5 |
| 20260507122828 | 20 | 65 | 9.7 | 0.0 | 0.00 | 0.00 | 0.00 | 71 | 1012.6 |
| 20260507122334 | 20 | 58 | 9.7 | 0.0 | 0.00 | 0.00 | 0.00 | 70 | 1012.6 |
| 20260507121844 | 20 | 94 | 9.7 | 0.0 | 0.00 | 0.00 | 0.00 | 70 | 1012.7 |
| 20260507121333 | 20 | 102 | 9.7 | 0.0 | 0.00 | 0.00 | 0.00 | 70 | 1012.7 |
| 20260507120843 | 20 | 95 | 11.3 | 0.0 | 0.00 | 0.00 | 0.00 | 70 | 1012.7 |
| 20260507120334 | 19 | 84 | 11.3 | 0.0 | 0.00 | 0.00 | 0.00 | 70 | 1012.8 |
| 20260507115833 | 19 | 117 | 12.9 | 0.0 | 0.00 | 0.00 | 0.00 | 69 | 1012.8 |
| 20260507115403 | 19 | 92 | 11.3 | 0.0 | 0.00 | 0.00 | 0.00 | 69 | 1012.8 |
| 20260507114832 | 20 | 89 | 11.3 | 0.0 | 0.00 | 0.00 | 0.00 | 69 | 1012.9 |
| 20260507114341 | 20 | 200 | 11.3 | 0.0 | 0.00 | 0.00 | 0.00 | 70 | 1012.9 |
| 20260507113903 | 20 | 93 | 11.3 | 0.0 | 0.00 | 0.00 | 0.00 | 68 | 1013.0 |
| 20260507113332 | 20 | 119 | 11.3 | 0.0 | 0.00 | 0.00 | 0.00 | 69 | 1013.1 |
| 20260507112903 | 20 | 123 | 12.9 | 0.0 | 0.00 | 0.00 | 0.00 | 70 | 1013.1 |
| 20260507112345 | 20 | 123 | 11.3 | 0.0 | 0.00 | 0.00 | 0.00 | 70 | 1013.2 |
| 20260507111836 | 20 | 117 | 11.3 | 0.0 | 0.00 | 0.00 | 0.00 | 70 | 1013.2 |
| 20260507111346 | 20 | 102 | 9.7 | 0.0 | 0.00 | 0.00 | 0.00 | 71 | 1013.1 |
| 20260507110856 | 20 | 51 | 11.3 | 0.0 | 0.00 | 0.00 | 0.00 | 71 | 1013.2 |
| 20260507110346 | 20 | 82 | 12.9 | 0.0 | 0.00 | 0.00 | 0.00 | 70 | 1013.2 |
| 20260507105846 | 20 | 117 | 14.5 | 0.0 | 0.00 | 0.00 | 0.00 | 69 | 1013.2 |
| 20260507105338 | 20 | 84 | 14.5 | 0.0 | 0.00 | 0.00 | 0.00 | 70 | 1013.3 |